Regional Weather Roundup
Issued by NWS Charleston, SC

Current Version | Previous Version | Graphics & Text | Print | Product List | Glossary On
Versions: 1 2 3 4 5 6 7 8 9 10 11 12 13 14 15 16 17 18 19 20 21 22 23 24 25 26 27 28 29 30 31 32 33 34 35 36 37 38 39 40 41 42 43 44 45 46 47 48 49 50
271
ASUS42 KCHS 121213
RWRCHS

REGIONAL WEATHER ROUNDUP
NATIONAL WEATHER SERVICE CHARLESTON SC
700 AM EST FRI FEB 12 2016

NOTE: "FAIR" INDICATES FEW OR NO CLOUDS BELOW 12,000 FEET WITH NO
SIGNIFICANT WEATHER AND/OR OBSTRUCTIONS TO VISIBILITY.

NOT ALL STATIONS ARE QUALITY CONTROLLED BY THE NATIONAL
WEATHER SERVICE. USE DATA WITH CAUTION...ESPECIALLY
DEWPOINT OBSERVATIONS.

SCZ027-030-031-034>040-042>050-121300-
...SOUTHEAST SOUTH CAROLINA...

CITY           SKY/WX    TMP DP  RH WIND       PRES   REMARKS
N CHARLESTON   MOCLDY    45  36  70 CALM      30.16R
6HR MIN TEMP:  43; 6HR MAX TEMP:  47;

WATERFRONT PRK   N/A     48  43  82 SE6       30.00S
MOUNT PLEASANT FAIR      48  39  71 CALM      30.16R
JOHNS ISLAND   CLOUDY    46  43  87 CALM      30.16S
PINOPOLIS        N/A     45  37  76 NE7       30.08R
MONCKS CORNER  FAIR      37  32  81 CALM      30.16S
SUMMERVILLE    FAIR      41  36  81 CALM      30.17R
BEAUFORT MCAS  CLOUDY    44  42  93 CALM      30.15S
6HR MIN TEMP:  40; 6HR MAX TEMP:  47;

BEAUFORT ARPT  CLOUDY    43  43 100 CALM      30.15R
HILTON HEAD IS CLEAR     50  48  93 SW5       30.17R
WALTERBORO     CLOUDY    41  37  87 CALM      30.16S
ALLENDALE      FAIR      39  36  87 CALM      30.14F

...SOUTHERN MIDLANDS AND PEE DEE...

CITY           SKY/WX    TMP DP  RH WIND       PRES   REMARKS
GEORGETOWN     PTSUNNY   46  41  81 NE8       30.17S
KINGSTREE      FAIR      39  32  75 N5        30.18S WCI  36
ORANGEBURG     CLOUDY    41  33  73 NE5       30.16R
6HR MIN TEMP:  40; 6HR MAX TEMP:  44;

BARNWELL       FAIR      39  36  87 CALM      30.16R
AIKEN          FAIR      36  30  80 NE3       30.18S
MANNING        FAIR      41  32  70 NE3       30.17S
COLUMBIA       CLOUDY    37  26  64 NE5       30.17F WCI  33
6HR MIN TEMP:  33; 6HR MAX TEMP:  41;

SUMTER         CLOUDY    34  28  77 NE9       30.16F WCI  27
6HR MIN TEMP:  31; 6HR MAX TEMP:  37;

FLORENCE       CLOUDY    32  21  64 NE9       30.22R WCI  24
6HR MIN TEMP:  32; 6HR MAX TEMP:  34;

MYRTLE BEACH   CLEAR     43  27  52 NE10      30.21S
N MYRTLE BEACH CLOUDY    40  28  62 NE12      30.19F WCI  33
6HR MIN TEMP:  39; 6HR MAX TEMP:  42;


$$

GAZ063-065-086>088-099>101-113>116-118-119-134>141-150-121300-
...SOUTHEAST GEORGIA...

CITY           SKY/WX    TMP DP  RH WIND       PRES   REMARKS
SAVANNAH ARPT  CLOUDY    47  44  90 CALM      30.15S
6HR MIN TEMP:  39; 6HR MAX TEMP:  47;

HUNTER AAF     CLOUDY    53  53 100 S7        30.13R
6HR MIN TEMP:  41; 6HR MAX TEMP:  53;

FORT STEWART   CLOUDY    51  48  90 CALM      30.12S
6HR MIN TEMP:  40; 6HR MAX TEMP:  51;

STATESBORO     CLOUDY    45  43  94 CALM      30.14R
SYLVANIA       MOSUNNY   38  38 100 CALM      30.15S
CLAXTON        CLOUDY    44  43  97 CALM      30.14S FOG

...CSRA...CENTRAL AND FAR SOUTHEAST GEORGIA...

CITY           SKY/WX    TMP DP  RH WIND       PRES   REMARKS
THOMSON        CLOUDY    37  35  94 CALM      30.20R
AUGUSTA-BUSH   CLOUDY    38  35  89 CALM      30.16S
6HR MIN TEMP:  35; 6HR MAX TEMP:  40;

AUGUSTA-DANIEL CLOUDY    41  31  67 NW5       30.16R
SWAINSBORO     CLOUDY    39  37  93 CALM      30.15R
VIDALIA        CLOUDY    46  45  93 CALM      30.13S
EASTMAN        CLOUDY    48  42  79 CALM      30.16R
HAZLEHURST     CLOUDY    58  55  91 SW8       30.12S
ALMA           CLOUDY    56  54  93 SW6       30.15R
6HR MIN TEMP:  52; 6HR MAX TEMP:  56;

WAYCROSS       CLOUDY    59  58  96 SW8       30.17R
JESUP          CLOUDY    57  55  94 SW3       30.16S
BAXLEY         CLOUDY    57  55  94 SW5       30.14S
BRUNSWICK      CLOUDY    54  52  94 SW9       30.18F
SAINT SIMONS   CLOUDY    53  52  96 SW9       30.19R
6HR MIN TEMP:  51; 6HR MAX TEMP:  54;


$$

SCZ027-028-034-036>038-045-046-048>050-GAZ119-141-121300-
...LAKE AND SUPPLEMENTAL COASTAL OBSERVATIONS...

STATION/POSITION TIME  TEMP    WIND        PRES    WAVE   SWELL
                       AIR SEA DIR/SP/G            HT/PER HT/PER/DIR
                 (UTC) (F)     (DEG/KT/KT) (MB)    (FT/S) (FT/S/D)
WINYAH BAY       1045   49      70/  7     1020.0
LAKE MURRAY      1100   35      20/  3/  5 1021.7R
ACE BASIN NERRS  NOT AVBL
FORT PULASKI     1100   51 49  190/  3/  5 1021.1
SAPELO ISLAND    1100   52     190/  6     1021.0S

$$

ANZ835-935-AMZ111-154-330-350-352-354-370-450-454-472-121300-
...C-MAN AND BUOY OBSERVATIONS...

STATION/POSITION TIME  TEMP    WIND        PRES    WAVE   SWELL
                       AIR SEA DIR/SP/G            HT/PER HT/PER/DIR
                 (UTC) (F)     (DEG/KT/KT) (MB)    (FT/S) (FT/S/D)
BUOY 41004       1150   59 69  230/ 16/ 19 1020.7R   3/ 6   2/10
BUOY 41008       1150   54 52  210/ 14/ 16 1021.8S   3/ 5
FOLLY BEACH CMAN 1200   50      90/  3/  3 1021.3R
CAPERS NEARSHORE 1108   51      70/ 10/ 16 1020.7F
FRIPP NEARSHORE  1100   51     210/  6/  8 1020.5R


STATION/POSITION TIME  TEMP    WIND        PRES    WAVE   SWELL
                       AIR SEA DIR/SP/G            HT/PER HT/PER/DIR
                 (UTC) (F)     (DEG/KT/KT) (MB)    (FT/S) (FT/S/D)
5E ST. MARYS GA  1121      56                N/A     2/ 3
FRYING PAN BUOY  1100   52 57   60/ 12/ 16 1022.3F
BUOY 41025       1150   40 60   20/ 14/ 17 1025.1F   3/ 7   2/ 90/ 7
CAPE LOOKOUT NC  NOT AVBL
BUOY 41002       1150   57 68  150/ 10/ 14   N/A     5/ 7   5/340/ 7
BUOY 41010       1120   68 72              1025.3R
ST AUGUSTINE FL  1200   50 56  200/  5/  7 1024.8R


$$




USA.gov is the U.S. government's official web portal to all federal, state and local government web resources and services.